Location: Beddau
(51.5575°N, 3.3561°W)
Time: 01:54:51
(UTC+00:00)

Meteor 1-13 Rocket - Pass Details

Date: 03 March 2021
Orbit: 830 x 913 km, 81.3° (Epoch: 13 April)

Event Time Altitude Azimuth Distance (km) Brightness Sun altitude
Rises 19:33:56 0° 348° (NNW) 3,561 7.7 -15.7°
Reaches altitude 10° 19:36:27 10° 351° (N) 2,613 7.0 -16.1°
Maximum altitude 19:42:25 69° 75° (ENE) 971 4.3 -17.0°
Drops below altitude 10° 19:48:16 10° 158° (SSE) 2,564 6.4 -17.9°
Enters shadow 19:48:37 - 159° (SSE) 2,694 6.5 -18.0°
